Date,TemperatureHighF,TemperatureAvgF,TemperatureLowF,DewpointHighF,DewpointAvgF,DewpointLowF,HumidityHigh,HumidityAvg,HumidityLow,PressureMaxIn,PressureMinIn,WindSpeedMaxMPH,WindSpeedAvgMPH,GustSpeedMaxMPH,PrecipitationSumIn
2013-9-1,80,74,68,66,63,59,82,69,54,30.15,30.12,17,8,17,0.00
2013-9-2,80,74,68,66,62,53,84,68,41,30.18,30.12,18,7,18,0.00
2013-9-3,81,75,69,66,63,51,83,69,38,30.18,30.12,17,7,17,0.00
2013-9-4,80,74,68,66,63,57,82,70,47,30.15,30.00,15,7,15,0.00
2013-9-5,80,74,69,68,65,60,90,75,53,30.03,29.91,15,6,15,0.00
2013-9-6,81,73,68,67,62,54,87,69,53,29.94,29.85,13,6,13,0.00
2013-9-7,74,69,64,67,64,49,100,84,43,30.03,29.91,13,4,13,0.80
2013-9-8,79,73,66,67,64,60,93,76,62,30.15,30.03,13,5,13,0.00
2013-9-9,79,73,67,67,64,58,88,74,62,30.18,30.12,14,5,14,0.00
2013-9-10,80,74,67,65,59,56,72,61,48,30.18,30.09,13,6,13,0.00
2013-9-11,79,73,68,68,62,56,85,69,50,30.12,30.12,15,6,15,0.00
2013-9-12,82,74,68,69,63,56,94,70,50,30.12,30.12,15,5,15,0.00
2013-9-13,80,74,70,68,67,62,92,79,58,30.12,30.12,14,5,14,0.00
2013-9-14,77,73,69,67,65,61,89,76,63,30.12,30.03,15,5,15,0.00
2013-9-15,80,73,69,68,65,58,89,77,59,30.03,29.91,13,5,13,0.00
2013-9-16,81,73,68,70,65,59,95,76,63,29.97,29.88,12,4,12,0.00
2013-9-17,86,77,70,70,60,50,95,57,37,29.94,29.88,15,4,15,0.00
2013-9-18,80,73,68,66,63,58,92,71,58,30.00,29.91,14,4,14,0.00
2013-9-19,82,76,68,64,60,57,81,59,47,29.94,29.91,12,4,12,0.00
2013-9-20,78,74,70,68,62,56,92,67,53,30.09,29.94,19,6,19,0.00
2013-9-21,78,72,68,68,65,62,91,79,65,30.18,30.09,15,6,15,0.00
2013-9-22,77,73,66,67,64,59,92,74,64,30.21,30.15,17,7,17,0.00
2013-9-23,76,76,76,64,64,64,66,66,66,30.18,30.06,15,6,15,0.00
2013-9-24,76,76,76,64,64,64,66,66,66,30.06,29.94,13,5,13,0.00
2013-9-25,76,76,76,64,64,64,66,66,66,29.97,29.91,12,4,12,0.00
2013-9-26,76,76,76,64,64,64,66,66,66,29.97,29.91,13,5,13,0.00
2013-9-27,76,76,76,64,64,64,66,66,66,29.97,29.88,15,5,15,0.00
2013-9-28,76,76,76,64,64,64,66,66,66,29.94,29.88,20,5,20,0.17
2013-9-29,76,76,76,64,64,64,66,66,66,29.97,29.88,17,5,17,0.00
2013-9-30,76,76,76,64,64,64,66,66,66,29.97,29.85,22,7,22,0.00